Terminal Aerodrome Forecast
Issued by NWS Lake Charles, LA

Home | Current Version | Previous Version | Text Only | Print | Product List | Glossary On
Versions: 1 2 3 4 5 6 7 8 9 10 11 12 13 14 15 16
000
FTUS44 KLCH 030211 AAB
TAFBPT
TAF AMD
KBPT 030211Z 0302/0324 07015KT P6SM OVC035
     FM030400 08018G26KT P6SM -RA BKN025 OVC050
     FM031200 09018G26KT 4SM -RA BR OVC015=

USA.gov is the U.S. government's official web portal to all federal, state and local government web resources and services.